Find Nilesat 102

NORAD ID: 26470 Int'l Des: 2000-046 Owner: NILE Country: EG operational
HEOCIRCULAR

Aktuelle Ansicht

3D-Globus wird geladen...

About Nilesat 102

Nilesat 102 (NORAD 26470) is a satellite launched Aug 17, 2000 by NILE of EG. It operates in HEO, CIRCULAR orbit with a mass of 1800.00 kg.

Nächste Überflüge

Passes for default location (London). Set your location on the main map for personalized predictions.

Höhenverlauf

Loading altitude history...

Zweizeiliger Elementsatz

1 26470U 00046B 26195.08321359 -.00000124 00000-0 00000+0 0 9990
2 26470 9.4281 59.1672 0005660 75.0644 305.3230 0.98042419 44818
Epoch: 14. Juli 2026 • Age: 7 hours

Aktueller Status

Höhe 36404.4 km
Apogäum / Perigäum N/A
Geschwindigkeit 3.05 km/s
Subsatellitenpunkt 8.39°N, 115.82°E
Startdatum 17. Aug. 2000
Alter 25.9 years
Typ other

Technische Details

Klassifizierung Payload
Masse 1800.00 kg
Trockenmasse 813.00 kg
Gesamtmasse 1800.00 kg
Länge 2.40 m
Durchmesser 1.70 m
Spannweite 21.50 m
Form Box + 2 Pan + Dish
Hersteller ASTT
Bus-Typ Eurostar 2000
Phasenstatus In Orbit
Besitzer/Staat NILE/EG

Most Searched